FW0839 Weather Reports


Display with metric or nautical units.
time (UTC)temp
F
wind
direction
speed
MPH
gust
MPH
rain 1hr
in
rain 24hr
in
rain mn
in
humidity
%
barometer
mb
20190319184516 46 170 3.0 14.0 0.00 0.00 0.00 39 1025.8
20190319183027 45 161 4.0 11.0 0.00 0.00 0.00 39 1026.2
20190319181517 46 209 8.0 14.0 0.00 0.00 0.00 43 1026.4
20190319180023 45 146 5.0 9.0 0.00 0.00 0.00 40 1026.7
20190319174511 44 165 6.0 11.0 0.00 0.00 0.00 44 1026.8
20190319173020 43 204 3.0 10.0 0.00 0.00 0.00 50 1027.0
20190319171805 42 204 6.0 10.0 0.00 0.00 0.00 41 1027.2
20190319170231 41 171 4.0 11.0 0.00 0.00 0.00 43 1027.4
20190319164746 40 167 4.0 11.0 0.00 0.00 0.00 43 1027.8
20190319163147 40 197 7.0 13.0 0.00 0.00 0.00 48 1027.9
20190319161643 40 186 7.0 12.0 0.00 0.00 0.00 49 1028.2
20190319160215 39 173 4.0 10.0 0.00 0.00 0.00 44 1028.1
20190319153123 38 209 5.0 11.0 0.00 0.00 0.00 49 1028.2
20190319151628 38 189 5.0 12.0 0.00 0.00 0.00 49 1028.4
20190319150206 37 153 4.0 13.0 0.00 0.00 0.00 51 1028.3
20190319144628 36 191 3.0 11.0 0.00 0.00 0.00 48 1028.2
20190319143236 36 225 2.0 9.0 0.00 0.00 0.00 49 1028.1
20190319141607 35 127 2.0 7.0 0.00 0.00 0.00 52 1028.1
20190319140121 32 144 2.0 3.0 0.00 0.00 0.00 63 1028.0
20190319134609 30 110 0.0 0.0 0.00 0.00 0.00 65 1028.2
20190319133056 28 123 0.0 0.0 0.00 0.00 0.00 70 1028.2
20190319131617 27 33 0.0 0.0 0.00 0.00 0.00 72 1028.1
20190319130126 26 33 0.0 0.0 0.00 0.00 0.00 75 1028.0
20190319124535 26 33 0.0 0.0 0.00 0.00 0.00 78 1027.8
20190319123046 25 33 0.0 0.0 0.00 0.00 0.00 78 1027.5
20190319121545 25 33 0.0 0.0 0.00 0.00 0.00 77 1027.4
20190319120104 25 33 0.0 0.0 0.00 0.00 0.00 79 1027.0
20190319114525 25 331 0.0 0.0 0.00 0.00 0.00 74 1026.7
20190319113027 25 34 0.0 0.0 0.00 0.00 0.00 79 1026.6
20190319111529 25 34 0.0 0.0 0.00 0.00 0.00 78 1026.6
20190319110025 25 34 0.0 0.0 0.00 0.00 0.00 77 1026.4
20190319104527 25 34 0.0 0.0 0.00 0.00 0.00 74 1026.0
20190319103024 25 34 0.0 0.0 0.00 0.00 0.00 76 1025.9
20190319101513 26 34 0.0 0.0 0.00 0.00 0.00 74 1025.6
20190319100036 26 34 0.0 0.0 0.00 0.00 0.00 75 1025.4
20190319094523 26 34 0.0 0.0 0.00 0.00 0.00 76 1025.2
20190319093007 26 34 0.0 0.0 0.00 0.00 0.00 75 1025.0
20190319091507 27 34 0.0 0.0 0.00 0.00 0.00 73 1024.8
20190319090007 26 34 0.0 0.0 0.00 0.00 0.00 75 1024.6
20190319084511 27 34 0.0 0.0 0.00 0.00 0.00 72 1024.9
20190319083013 27 34 0.0 0.0 0.00 0.00 0.00 70 1025.0
20190319081632 27 34 0.0 0.0 0.00 0.00 0.00 73 1025.1
20190319080236 28 34 1.0 2.0 0.00 0.00 0.00 73 1025.3
20190319074635 28 34 0.0 0.0 0.00 0.00 0.00 71 1025.2
20190319073125 28 34 0.0 0.0 0.00 0.00 0.00 69 1025.5
20190319071649 29 34 0.0 0.0 0.00 0.00 0.00 68 1025.3
20190319070226 29 34 0.0 0.0 0.00 0.00 0.00 67 1025.3
20190319064639 29 34 0.0 0.0 0.00 0.00 0.00 69 1025.3
20190319063138 30 34 0.0 1.0 0.00 0.00 0.00 64 1025.2
20190319061652 30 34 1.0 5.0 0.00 0.00 0.00 65 1025.5
20190319060115 31 62 1.0 3.0 0.00 0.00 0.00 65 1025.5
20190319054642 31 49 1.0 4.0 0.00 0.00 0.00 61 1025.4
20190319053100 32 53 2.0 6.0 0.00 0.00 0.00 60 1025.4
20190319051709 32 53 2.0 6.0 0.00 0.00 0.00 58 1025.4
20190319050057 32 53 3.0 5.0 0.00 0.00 0.00 57 1025.4
20190319044555 33 49 2.0 5.0 0.00 0.00 0.00 53 1025.3
20190319043041 34 50 2.0 6.0 0.00 0.00 0.00 48 1025.1
20190319040029 35 69 4.0 10.0 0.00 0.00 0.00 44 1024.9
20190319034554 35 336 6.0 14.0 0.00 0.00 0.00 44 1025.1
20190319033037 35 24 5.0 12.0 0.00 0.00 0.00 44 1025.2
20190319031600 36 59 5.0 13.0 0.00 0.00 0.00 43 1025.0
20190319030042 36 355 5.0 12.0 0.00 0.00 0.00 43 1024.8
20190319024528 36 42 4.0 12.0 0.00 0.00 0.00 43 1024.8
20190319023038 36 40 3.0 5.0 0.00 0.00 0.00 42 1024.9
20190319021535 36 34 3.0 9.0 0.00 0.00 0.00 43 1025.0
20190319014529 36 13 5.0 10.0 0.00 0.00 0.00 42 1024.7
20190319013024 37 71 2.0 12.0 0.00 0.00 0.00 44 1024.9
20190319011519 37 333 3.0 11.0 0.00 0.00 0.00 41 1024.8
20190319010012 37 63 3.0 14.0 0.00 0.00 0.00 42 1024.9
20190319004516 37 32 1.0 8.0 0.00 0.00 0.00 42 1024.7
20190319003028 38 11 0.0 4.0 0.00 0.00 0.00 42 1024.4
20190319001511 38 322 1.0 10.0 0.00 0.00 0.00 40 1024.5
20190319000032 38 45 4.0 9.0 0.00 0.00 0.00 40 1024.2
20190318234507 39 17 4.0 13.0 0.00 0.00 0.00 38 1024.0
20190318233003 40 327 1.0 4.0 0.00 0.00 0.00 38 1023.9
20190318231751 40 45 1.0 9.0 0.00 0.00 0.00 38 1023.4
20190318230127 41 61 5.0 10.0 0.00 0.00 0.00 36 1023.1
20190318224658 42 331 3.0 8.0 0.00 0.00 0.00 33 1022.8
20190318223131 43 290 3.0 10.0 0.00 0.00 0.00 35 1022.7
20190318221624 43 299 3.0 6.0 0.00 0.00 0.00 38 1022.7
20190318220122 44 262 1.0 11.0 0.00 0.00 0.00 37 1022.9
20190318214634 44 300 4.0 17.0 0.00 0.00 0.00 34 1022.9
20190318213139 44 26 9.0 15.0 0.00 0.00 0.00 35 1022.8
20190318211639 45 233 3.0 14.0 0.00 0.00 0.00 32 1022.7
20190318210115 45 347 4.0 13.0 0.00 0.00 0.00 35 1022.6
20190318204618 43 11 4.0 13.0 0.00 0.00 0.00 35 1022.6
20190318203155 44 44 4.0 21.0 0.00 0.00 0.00 33 1022.3
20190318201621 45 316 6.0 13.0 0.00 0.00 0.00 37 1022.1
20190318200111 45 249 6.0 18.0 0.00 0.00 0.00 36 1022.5
20190318194625 45 327 8.0 16.0 0.00 0.00 0.00 31 1022.3
20190318193112 46 5 5.0 14.0 0.00 0.00 0.00 35 1022.4
20190318191627 45 30 5.0 15.0 0.00 0.00 0.00 36 1022.1
20190318190126 46 30 7.0 13.0 0.00 0.00 0.00 34 1022.4